Regional Weather Roundup
Issued by NWS

Home | Current Version | Previous Version | Text Only | Print | Product List | Glossary Off
Versions: 1 2 3 4 5 6 7 8 9 10 11 12 13 14 15 16 17 18 19 20 21 22 23 24 25 26 27 28 29 30 31 32 33 34 35 36 37 38 39 40 41 42 43 44 45 46 47 48 49 50

722
ASUS43 KMPX 271701
RWRMN
WEATHER ROUNDUP FOR MINNESOTA
NATIONAL WEATHER SERVICE TWIN CITIES/CHANHASSEN MN
1100 AM CST MON FEB 27 2017


NOTE: "FAIR" INDICATES FEW OR NO CLOUDS BELOW 12,000 FEET WITH NO
SIGNIFICANT WEATHER AND/OR OBSTRUCTIONS TO VISIBILITY. N/A MEANS
CURRENT SKY AND/OR WEATHER CONDITIONS ARE NOT AVAILABLE.

MNZ060>063-068>070-271800-
   Twin Cities Metro

CITY           SKY/WX    TMP DP  RH WIND       PRES   REMARKS
TWIN CITIES    PTSUNNY   41  19  41 SW15      29.99R
ST PAUL        SUNNY     41  23  48 VRB5      30.00S
CRYSTAL        SUNNY     39  20  46 SW15      29.97R
BLAINE         PTSUNNY   41  25  52 SW15      29.97R
LAKEVILLE      SUNNY     36  23  60 S10       29.99S
EDEN PRAIRIE   SUNNY     40  21  46 S12G21    29.96F
SOUTH ST PAUL  MOSUNNY   40  21  47 S10       30.00R
LAKE ELMO      FAIR      37  23  56 S10       30.00S
$$
MNZ001>005-007-008-013>017-022>024-027-028-271800-
   Northwest Minnesota

CITY           SKY/WX    TMP DP  RH WIND       PRES   REMARKS
BEMIDJI        CLOUDY    22  11  63 SE5       29.89F WCI  15
HALLOCK        CLOUDY    19  14  79 S7        29.90R WCI  10
ROSEAU         CLOUDY    19  12  73 S10       29.89S WCI   8
WARROAD        CLOUDY    21  10  63 S9        29.89S WCI  11
CROOKSTON      CLOUDY    23  18  80 SW5       29.93R WCI  17
FOSSTON        CLOUDY    25  12  58 S3        29.90R
DETROIT LAKES  CLOUDY    27  18  69 SE9       29.88S WCI  17
MOORHEAD       CLOUDY    25  16  68 S5        29.91R WCI  19
PARK RAPIDS    SUNNY     26  12  55 SE7       29.88F WCI  18
MAHNOMEN       FAIR      26  16  65 E3        29.88S
$$
MNZ006-009>011-018-025>026-271800-
   North Central Minnesota

CITY           SKY/WX    TMP DP  RH WIND       PRES   REMARKS
BAUDETTE       MOSUNNY   19  11  70 S7        29.89S WCI  10
FLAG ISLAND    CLOUDY    14   9  79 S16       29.87S WCI  -2
INTL FALLS     CLOUDY    19  10  68 S7        29.93S WCI  10
WASKISH        CLOUDY    25  12  58 SW3       29.91F
BIG FORK       MOSUNNY   25   9  50 S7        29.92S WCI  17
LONGVILLE      CLOUDY    28  14  54 SE3       29.90F
GRAND RAPIDS   CLOUDY    25  14  63 SE7       29.94F WCI  17
CRANE LAKE     MOSUNNY   18   5  57 S5        29.96F WCI  11
ORR            MOSUNNY   21   3  45 CALM      29.90F
COOK           MOSUNNY   19   7  58 S3        29.94S
WALKER         FAIR      23  12  62 E5        29.90S WCI  17
$$
MNZ012-019>021-037-271800-
   Northeast Minnesota

CITY           SKY/WX    TMP DP  RH WIND       PRES   REMARKS
DULUTH         CLOUDY    26  19  74 CALM      29.94F
ELY            CLOUDY    21   9  58 CALM      29.93F
HIBBING        CLOUDY    19  11  70 E5        29.93F WCI  12
EVELETH        FLURRIES  22  10  60 CALM      29.95S
DULUTH HARBOR  CLOUDY    27  19  74 CALM      30.01S
TWO HARBORS    CLOUDY    27  19  74 CALM      29.95S
SILVER BAY     FLURRIES  25  18  74 CALM      29.95F
GRAND MARAIS     N/A     26  14  60 E5        30.02S WCI  20
G MARAIS ARPRT CLOUDY    19  10  68 SE3       29.93F HAZE
$$
MNZ029>031-032-039>041-046>048-054>057-064-271800-
   West Central Minnesota

CITY           SKY/WX    TMP DP  RH WIND       PRES   REMARKS
FERGUS FALLS   CLOUDY    25  18  74 SE6       29.92F WCI  18
WHEATON        MOSUNNY   27  23  86 SE6       29.90S WCI  20
MORRIS         SUNNY     34  27  75 SE10      29.87F WCI  26
ALEXANDRIA     CLOUDY    29  22  75 SE7       29.88F WCI  22
ELBOW LAKE     FAIR      28  23  82 E8        29.88F HAZE    WCI  20
WADENA         CLOUDY    23  16  74 SE7       29.88F WCI  15
GLENWOOD       CLOUDY    30  27  86 SE7       29.89F WCI  23
APPLETON       CLOUDY    34  21  60 S7        29.88F WCI  28
BENSON         MOSUNNY   37  21  52 SW9       29.91F
ORTONVILLE     CLOUDY    30  21  69 CALM      29.87F
MADISON          N/A     34  25  69 SE7       29.88F WCI  28
WILLMAR        FAIR      34  25  69 S6        29.92F WCI  29
$$
MNZ033>034-036-042>043-049>051-058-059-271800-
   Central Minnesota

CITY           SKY/WX    TMP DP  RH WIND       PRES   REMARKS
ST CLOUD       MOSUNNY   33  24  69 S10       29.94R WCI  25
SAUK CENTRE    FAIR      29  25  84 SE8       29.91S WCI  21
PAYNESVILLE    CLOUDY    32  23  69 S9        29.92S WCI  24
AITKIN         CLOUDY    30  18  59 S5        29.92S WCI  25
PINE RIVER     SUNNY     25  16  68 SE6       29.94F WCI  18
BRAINERD       CLOUDY    27  21  78 VRB7      29.92F WCI  19
STAPLES        MOSUNNY   27  18  69 SE6       29.89F WCI  20
LONG PRAIRIE   FAIR      28  23  80 E8        29.91S WCI  20
LITTLE FALLS   MOSUNNY   30  23  74 SE5       29.93S WCI  25
LITCHFIELD     MOSUNNY   37  27  65 S3        29.93F
BUFFALO        SUNNY     36  24  61 S10G17    29.97S
MAPLE LAKE     CLOUDY    37  28  69 S6        29.95F
HUTCHINSON     CLOUDY    37  29  72 S9        29.95F
$$
MNZ037-044-045-052-053-271800-
   East Central Minnesota

CITY           SKY/WX    TMP DP  RH WIND       PRES   REMARKS
PRINCETON      MOSUNNY   37  25  60 S7        29.96R
MORA           CLOUDY    32  27  80 SW5       29.97S WCI  27
CAMBRIDGE      MOSUNNY   37  25  60 SW8       29.95R
RUSH CITY      PTSUNNY   34  24  67 S7        29.96S WCI  28
MOOSE LAKE     CLOUDY    30  21  69 S3        29.93F
HINCKLEY       CLOUDY    32  27  80 SW5       29.96S WCI  27
CLOQUET        CLOUDY    27  18  69 E5        29.94S WCI  21
MCGREGOR       CLOUDY    30  19  64 CALM      29.94S
$$
MNZ071>073-080-081-089-090-097-098-271800-
   Southwest Minnesota

CITY           SKY/WX    TMP DP  RH WIND       PRES   REMARKS
MONTEVIDEO     CLOUDY    34  25  69 SW5       29.91F WCI  30
GRANITE FALLS  CLOUDY    34  25  68 SE5       29.92F WCI  30
CANBY          CLOUDY    36  23  58 CALM      29.88F
MARSHALL       CLOUDY    38  20  48 S7        29.91S
REDWOOD FALLS  PTSUNNY   38  24  57 S12       29.92F
OLIVIA         CLOUDY    36  30  80 S6        29.91F
PIPESTONE      MOSUNNY   36  21  55 S10       29.89S
WINDOM         SUNNY     37  25  60 S15       29.93S
WORTHINGTON    MOSUNNY   35  24  64 S14       29.93S WCI  26
JACKSON        SUNNY     34  23  64 S13       29.95F WCI  25
TRACY          PTSUNNY   39  24  54 SW16      29.91R
SLAYTON        MOSUNNY   34  25  68 S16       29.91F WCI  24
$$
MNZ065>067-074>077-082>085-091>093-271800-
   South Central Minnesota

CITY           SKY/WX    TMP DP  RH WIND       PRES   REMARKS
MANKATO          N/A     33  23  66 S14       29.98F WCI  23
NEW ULM        MOSUNNY   37  23  56 S10       29.95S
ST JAMES       SUNNY     34  23  64 S13       29.97S WCI  25
FAIRMONT       MOSUNNY   33  24  69 S15       29.97F WCI  23
GLENCOE        MOSUNNY   37  29  72 S8        29.95F
FARIBAULT      SUNNY     30  21  69 S9        30.00F WCI  22
OWATONNA       SUNNY     32  21  64 S13       30.00F WCI  22
WASECA         SUNNY     32  23  69 S10       30.01F WCI  24
ALBERT LEA     SUNNY     32  21  64 S8        30.00S WCI  25
$$
MNZ078>079-086>088-094>096-271800-
   Southeast Minnesota

CITY           SKY/WX    TMP DP  RH WIND       PRES   REMARKS
ROCHESTER      SUNNY     30  24  78 S13       30.02S WCI  20
RED WING       CLOUDY    34  18  51 S5        30.03R WCI  30
STANTON        SUNNY     33  23  67 S10       30.00S WCI  24
WINONA         SUNNY     37  27  65 S5        30.06F
AUSTIN         SUNNY     28  25  86 S7        30.02S WCI  21
PRESTON        SUNNY     32  24  71 S10       30.04S WCI  24
$$
ABBREVIATIONS USED IN REMARKS
   TC - TEMPERATURES IN CELSIUS
  WCI - WIND CHILL INDEX
   HX - HEAT INDEX
  VSB - VISIBILITY
$$




USA.gov is the U.S. government's official web portal to all federal, state and local government web resources and services.